LY3PGO-4 Weather Reports


Display with metric or nautical units.
time (UTC)temp
F
wind
direction
speed
MPH
gust
MPH
rain 1hr
in
rain 24hr
in
rain mn
in
humidity
%
barometer
mb
20260506112849 62 135 4.0 13.0 0.00 0.02 0.02 49 1008.4
20260506111839 61 135 4.0 11.0 0.00 0.02 0.02 49 1008.2
20260506110832 62 45 4.0 17.0 0.00 0.02 0.02 51 1008.3
20260506105827 61 90 3.0 13.0 0.00 0.02 0.02 49 1008.5
20260506104820 62 112 4.0 11.0 0.00 0.02 0.02 49 1008.6
20260506103816 61 112 3.0 11.0 0.00 0.02 0.02 50 1008.6
20260506102808 61 90 4.0 14.0 0.00 0.02 0.02 50 1008.7
20260506101801 60 112 3.0 14.0 0.00 0.02 0.02 49 1008.9
20260506100755 60 135 6.0 11.0 0.00 0.02 0.02 52 1009.2
20260506095749 59 112 4.0 8.0 0.00 0.02 0.02 51 1009.2
20260506094746 60 112 4.0 11.0 0.00 0.02 0.02 52 1009.3
20260506093737 60 112 4.0 11.0 0.00 0.02 0.02 51 1009.4
20260506092731 59 90 4.0 13.0 0.00 0.02 0.02 50 1009.4
20260506091725 58 112 4.0 14.0 0.00 0.02 0.02 53 1009.4
20260506090718 58 67 2.0 9.0 0.00 0.02 0.02 54 1009.4
20260506085716 58 90 3.0 9.0 0.00 0.02 0.02 51 1009.3
20260506084706 57 90 4.0 11.0 0.00 0.02 0.02 53 1009.5
20260506083659 57 90 3.0 8.0 0.00 0.02 0.02 50 1009.5
20260506082653 57 112 4.0 11.0 0.00 0.02 0.02 48 1009.6
20260506081647 57 135 4.0 9.0 0.00 0.02 0.02 49 1009.6
20260506080644 56 112 4.0 13.0 0.00 0.02 0.02 49 1009.6
20260506072617 53 135 4.0 11.0 0.00 0.02 0.02 50 1010.1
20260506071613 53 112 3.0 8.0 0.00 0.02 0.02 55 1010.1
20260506070604 51 135 2.0 7.0 0.00 0.02 0.02 56 1010.1
20260506061532 49 112 2.0 4.0 0.00 0.02 0.02 62 1010.4
20260506060527 48 90 1.0 4.0 0.00 0.02 0.02 62 1010.5
20260506050450 48 112 2.0 9.0 0.00 0.02 0.02 60 1010.3
20260506044440 48 90 3.0 9.0 0.00 0.02 0.02 63 1010.7
20260506043431 47 90 2.0 8.0 0.00 0.02 0.02 66 1010.3
20260506042426 47 112 2.0 6.0 0.00 0.02 0.02 68 1010.7
20260506041418 47 112 1.0 7.0 0.00 0.02 0.02 64 1010.8
20260506040412 48 112 3.0 9.0 0.00 0.02 0.02 62 1010.7
20260506035408 48 135 3.0 11.0 0.00 0.02 0.02 63 1010.5
20260506034400 48 135 1.0 6.0 0.00 0.02 0.02 65 1010.5
20260506033354 48 112 1.0 7.0 0.00 0.02 0.02 68 1010.3
20260506032348 48 112 2.0 7.0 0.00 0.02 0.02 68 1010.2
20260506031341 48 112 2.0 8.0 0.00 0.02 0.02 68 1010.3
20260506030338 48 90 4.0 7.0 0.00 0.02 0.02 68 1010.2
20260506025330 48 112 4.0 9.0 0.00 0.02 0.02 69 1010.3
20260506024323 48 112 2.0 8.0 0.00 0.02 0.02 71 1010.3
20260506023316 48 157 2.0 6.0 0.00 0.02 0.02 72 1010.2
20260506022310 48 135 2.0 8.0 0.00 0.02 0.02 73 1009.9
20260506021307 48 157 3.0 8.0 0.00 0.02 0.02 74 1009.9
20260506020258 48 112 2.0 7.0 0.00 0.02 0.02 77 1009.8
20260506015251 48 135 2.0 9.0 0.00 0.02 0.02 79 1009.7
20260506014245 49 202 1.0 8.0 0.00 0.02 0.02 82 1009.5
20260506013240 49 112 2.0 7.0 0.00 0.02 0.02 83 1009.5
20260506012237 49 157 3.0 7.0 0.00 0.02 0.02 87 1009.1
20260506011227 49 135 2.0 6.0 0.00 0.02 0.02 89 1009.4
20260506010221 49 135 1.0 4.0 0.00 0.02 0.02 90 1009.4
20260506005215 50 135 1.0 4.0 0.00 0.02 0.02 90 1009.4
20260506004209 49 157 2.0 4.0 0.00 0.02 0.02 89 1009.4
20260506003205 50 135 0.0 4.0 0.00 0.02 0.02 89 1009.3
20260506002156 50 135 1.0 2.0 0.00 0.02 0.02 88 1009.4
20260506001149 50 135 0.0 2.0 0.01 0.02 0.02 87 1009.4
20260506000143 50 135 1.0 2.0 0.01 0.02 0.02 87 1009.3
20260505235151 50 135 0.0 0.0 0.01 0.02 0.02 87 1009.4
20260505234159 50 135 0.0 0.0 0.01 0.02 0.02 88 1009.1
20260505233125 50 135 0.0 2.0 0.01 0.02 0.02 87 1009.1
20260505232119 51 135 0.0 0.0 0.00 0.01 0.02 87 1008.8
20260505231113 51 135 0.0 0.0 0.00 0.01 0.01 86 1009.2
20260505230106 50 135 0.0 0.0 0.00 0.01 0.01 88 1009.1
20260505225103 51 135 0.0 0.0 0.00 0.01 0.01 86 1009.0
20260505224053 51 135 0.0 2.0 0.00 0.01 0.01 87 1008.8
20260505223047 50 135 2.0 2.0 0.00 0.01 0.01 88 1008.7
20260505222042 51 157 2.0 2.0 0.01 0.01 0.01 87 1008.7
20260505221035 51 180 0.0 0.0 0.01 0.01 0.01 89 1009.5
20260505220032 51 180 0.0 2.0 0.01 0.01 0.01 90 1009.2
20260505215022 51 247 0.0 0.0 0.01 0.01 0.01 90 1008.9
20260505214017 51 247 0.0 2.0 0.01 0.01 0.01 89 1009.0
20260505213010 51 247 1.0 2.0 0.01 0.01 0.01 89 1009.4
20260505212005 51 202 0.0 0.0 0.00 0.00 0.00 88 1009.1
20260505211001 51 135 0.0 4.0 0.00 0.00 0.00 88 1008.4
20260505205952 51 180 1.0 4.0 0.00 0.00 0.00 87 1008.6
20260505204946 52 202 0.0 2.0 0.00 0.00 0.00 87 1008.5
20260505203940 52 135 2.0 4.0 0.00 0.00 0.00 85 1008.4
20260505202934 53 135 1.0 6.0 0.00 0.00 0.00 83 1008.3
20260505201932 54 135 0.0 4.0 0.00 0.00 0.00 79 1009.0
20260505200922 54 157 2.0 4.0 0.00 0.00 0.00 77 1008.1
20260505195915 55 135 0.0 8.0 0.00 0.00 0.00 76 1008.8
20260505194908 56 202 0.0 8.0 0.00 0.00 0.00 72 1008.6
20260505193902 56 247 2.0 11.0 0.00 0.00 0.00 71 1008.8
20260505192858 57 157 2.0 6.0 0.00 0.00 0.00 67 1008.5
20260505191851 57 337 1.0 4.0 0.00 0.00 0.00 66 1008.1
20260505190844 57 180 1.0 7.0 0.00 0.00 0.00 70 1008.4
20260505185837 59 247 4.0 8.0 0.00 0.00 0.00 65 1008.7
20260505184831 60 202 2.0 7.0 0.00 0.00 0.00 57 1007.9
20260505183829 60 202 2.0 9.0 0.00 0.00 0.00 56 1007.6
20260505182818 61 180 2.0 4.0 0.00 0.00 0.00 55 1007.5
20260505181812 61 157 1.0 4.0 0.00 0.00 0.00 54 1007.4
20260505180806 61 157 2.0 4.0 0.00 0.00 0.00 54 1007.4
20260505175800 62 225 2.0 4.0 0.00 0.00 0.00 54 1007.4
20260505174758 62 202 0.0 4.0 0.00 0.00 0.00 54 1007.5
20260505173748 62 202 2.0 4.0 0.00 0.00 0.00 54 1007.6
20260505172746 62 202 2.0 4.0 0.00 0.00 0.00 53 1007.8
20260505171736 63 180 2.0 6.0 0.00 0.00 0.00 57 1007.5
20260505170729 63 157 2.0 4.0 0.00 0.00 0.00 61 1007.6
20260505165723 64 270 0.0 4.0 0.00 0.00 0.00 58 1007.5
20260505164717 64 247 2.0 6.0 0.00 0.00 0.00 55 1007.7
20260505163714 64 270 2.0 6.0 0.00 0.00 0.00 53 1007.6
20260505162705 65 247 2.0 4.0 0.00 0.00 0.00 54 1007.7
20260505161700 65 247 0.0 4.0 0.00 0.00 0.00 54 1007.7
20260505160652 65 202 1.0 4.0 0.00 0.00 0.00 54 1007.8
20260505152627 66 247 7.0 11.0 0.00 0.00 0.00 52 1007.6
20260505151621 66 157 5.0 9.0 0.00 0.00 0.00 53 1007.8
20260505150615 66 180 3.0 11.0 0.00 0.00 0.00 55 1007.7
20260505140540 64 202 2.0 7.0 0.00 0.00 0.00 61 1008.2
20260505124447 68 270 3.0 14.0 0.00 0.00 0.00 53 1008.5
20260505123442 69 225 8.0 16.0 0.00 0.00 0.00 50 1008.5
20260505122439 69 270 4.0 9.0 0.00 0.00 0.00 49 1008.3
20260505121429 69 247 6.0 11.0 0.00 0.00 0.00 47 1008.5
20260505120423 69 247 3.0 13.0 0.00 0.00 0.00 48 1008.4
20260505115417 70 225 3.0 11.0 0.00 0.00 0.00 49 1008.5
20260505114412 70 292 5.0 11.0 0.00 0.00 0.00 47 1008.4
20260505113407 70 202 4.0 14.0 0.00 0.00 0.00 49 1008.6